Time,TemperatureF,DewpointF,PressureIn,WindDirection,WindDirectionDegrees,WindSpeedMPH,WindSpeedGustMPH,Humidity,HourlyPrecipIn,Conditions,Clouds,dailyrainin,SoftwareType,DateUTC
2013-09-08 00:01:00,83.4,69.0,29.81,SE,131,1.0,5.0,62,0.00,,,0.00,weatherlink.com 1.10,2013-09-08 05:01:00,
2013-09-08 00:07:00,83.2,69.0,29.81,South,179,0.0,5.0,62,0.00,,,0.00,weatherlink.com 1.10,2013-09-08 05:07:00,
2013-09-08 00:22:00,83.2,69.0,29.81,SSE,157,0.0,5.0,62,0.00,,,0.00,weatherlink.com 1.10,2013-09-08 05:22:00,
2013-09-08 00:37:00,83.0,69.0,29.81,ESE,122,1.0,4.0,62,0.00,,,0.00,weatherlink.com 1.10,2013-09-08 05:37:00,
2013-09-08 00:54:00,82.9,69.0,29.81,South,188,0.0,3.0,63,0.00,,,0.00,weatherlink.com 1.10,2013-09-08 05:54:00,
2013-09-08 01:07:00,82.8,69.0,29.81,SE,127,1.0,4.0,63,0.00,,,0.00,weatherlink.com 1.10,2013-09-08 06:07:00,
2013-09-08 01:22:00,82.7,69.0,29.82,SSE,152,0.0,4.0,63,0.00,,,0.00,weatherlink.com 1.10,2013-09-08 06:22:00,
2013-09-08 01:37:00,82.7,68.0,29.81,SSE,147,2.0,3.0,62,0.00,,,0.00,weatherlink.com 1.10,2013-09-08 06:37:00,
2013-09-08 01:53:00,82.8,68.0,29.81,SE,144,0.0,6.0,61,0.00,,,0.00,weatherlink.com 1.10,2013-09-08 06:53:00,
2013-09-08 02:08:00,82.6,68.0,29.81,SSE,160,2.0,6.0,61,0.00,,,0.00,weatherlink.com 1.10,2013-09-08 07:08:00,
2013-09-08 02:26:00,82.4,68.0,29.81,ESE,113,0.0,3.0,62,0.00,,,0.00,weatherlink.com 1.10,2013-09-08 07:26:00,
2013-09-08 03:22:00,81.4,68.0,29.81,SE,141,1.0,3.0,63,0.00,,,0.00,weatherlink.com 1.10,2013-09-08 08:22:00,
2013-09-08 03:23:00,81.4,68.0,29.81,ESE,108,2.0,3.0,63,0.00,,,0.00,weatherlink.com 1.10,2013-09-08 08:23:00,
2013-09-08 03:42:00,80.9,68.0,29.81,SSE,167,0.0,2.0,64,0.00,,,0.00,weatherlink.com 1.10,2013-09-08 08:42:00,
2013-09-08 03:53:00,80.7,67.0,29.81,SE,146,0.0,2.0,64,0.00,,,0.00,weatherlink.com 1.10,2013-09-08 08:53:00,
2013-09-08 04:08:00,80.6,67.0,29.81,ESE,115,2.0,2.0,63,0.00,,,0.00,weatherlink.com 1.10,2013-09-08 09:08:00,
2013-09-08 04:51:00,79.6,67.0,29.81,SE,138,0.0,1.0,65,0.00,,,0.00,weatherlink.com 1.10,2013-09-08 09:51:00,
2013-09-08 05:09:00,79.3,67.0,29.81,SE,131,2.0,2.0,65,0.00,,,0.00,weatherlink.com 1.10,2013-09-08 10:09:00,
2013-09-08 05:24:00,78.9,67.0,29.81,SE,146,0.0,2.0,66,0.00,,,0.00,weatherlink.com 1.10,2013-09-08 10:24:00,
2013-09-08 05:46:00,78.2,66.0,29.81,SSE,151,0.0,2.0,67,0.00,,,0.00,weatherlink.com 1.10,2013-09-08 10:46:00,
2013-09-08 06:48:00,76.8,66.0,29.81,SSE,147,0.0,0.0,70,0.00,,,0.00,weatherlink.com 1.10,2013-09-08 11:48:00,
2013-09-08 06:53:00,76.7,67.0,29.81,SE,146,0.0,0.0,71,0.00,,,0.00,weatherlink.com 1.10,2013-09-08 11:53:00,
2013-09-08 07:08:00,76.3,66.0,29.81,ESE,115,0.0,0.0,71,0.00,,,0.00,weatherlink.com 1.10,2013-09-08 12:08:00,
2013-09-08 08:18:00,77.8,68.0,29.82,SE,133,0.0,2.0,71,0.00,,,0.00,weatherlink.com 1.10,2013-09-08 13:18:00,
2013-09-08 08:24:00,78.2,68.0,29.81,SE,127,0.0,2.0,70,0.00,,,0.00,weatherlink.com 1.10,2013-09-08 13:24:00,
2013-09-08 08:39:00,78.8,68.0,29.81,ESE,118,0.0,1.0,70,0.00,,,0.00,weatherlink.com 1.10,2013-09-08 13:39:00,
2013-09-08 08:54:00,79.6,68.0,29.81,SW,224,0.0,3.0,68,0.00,,,0.00,weatherlink.com 1.10,2013-09-08 13:54:00,
2013-09-08 09:11:00,81.0,69.0,29.81,SSE,150,1.0,3.0,67,0.00,,,0.00,weatherlink.com 1.10,2013-09-08 14:11:00,
2013-09-08 09:24:00,82.9,69.0,29.81,SE,125,0.0,3.0,64,0.00,,,0.00,weatherlink.com 1.10,2013-09-08 14:24:00,
2013-09-08 09:39:00,85.0,69.0,29.80,ESE,118,3.0,4.0,59,0.00,,,0.00,weatherlink.com 1.10,2013-09-08 14:39:00,
2013-09-08 09:54:00,86.6,70.0,29.80,SE,136,2.0,2.0,57,0.00,,,0.00,weatherlink.com 1.10,2013-09-08 14:54:00,